Newark Heath, OH

11:48 AM EST on November 20, 2019 (GMT -0500)
Newark Heath

Weather History for KVTA - October, 2019

Change the Weather History Date:

Monday, October 21, 2019

  Actual Average Record
Temperature  
Mean Temperature 58 °F -  
Max Temperature 75 °F 61 °F 83 °F (1953)
Min Temperature 44 °F 38 °F 14 °F (1952)
Degree Days  
Heating Degree Days 6    
Growing Degree Days 8 (Base 50)    
Moisture  
Dew Point 48 °F    
Average Humidity 85    
Maximum Humidity 97    
Minimum Humidity 50    
Precipitation  
Precipitation 0.07 in - - ()
Sea Level Pressure  
Sea Level Pressure 29.92 in    
Wind  
Wind Speed 2 mph ()    
Max Wind Speed 14 mph    
Max Gust Speed 22 mph    
Visibility 4.5 miles    
Events Fog , Rain    
Averages and records for this station are not official NWS values.
T = Trace of Precipitation, MM = Missing Value Source: Averaged Metar Reports

Daily Weather History Graph

Daily Weather History Graph

Search for Another Location

Airport or City:

Astronomy

Oct. 21, 2019 Rise Set
Actual Time 7:46 AM EDT 6:41 PM EDT
Civil Twilight 7:18 AM EDT 7:09 PM EDT
Nautical Twilight 6:47 AM EDT 7:40 PM EDT
Astronomical Twilight 6:15 AM EDT 8:12 PM EDT
Moon No Moon Rise 3:03 PM EDT (10/21)
Length of Visible Light 11h 50m
Length of Day
10h 55m
Waning Gibbous, 48% of the Moon is Illuminated
Oct 21
Waning Gibbous
Oct 27
New
Nov 4
First Quarter
Nov 12
Full
Nov 19
Last Quarter

Hourly Weather History & Observations

Time (EDT) Temp. Windchill Dew Point Humidity Pressure Visibility Wind Dir Wind Speed Gust Speed Precip Events Conditions
12:48 AM 48.2 °F - 46.4 °F 93% 29.97 in 3.0 mi Calm Calm - N/A   Partly Cloudy
12:54 AM 48.9 °F - 46.0 °F 90% 29.97 in 7.0 mi Calm Calm - N/A   Clear
1:28 AM 48.0 °F - 45.0 °F 89% 29.97 in 2.0 mi Calm Calm - N/A   Clear
1:39 AM 48.9 °F - 46.0 °F 90% 29.97 in 0.8 mi Calm Calm - N/A   Clear
1:54 AM 46.9 °F - 45.0 °F 93% 29.97 in 0.5 mi Calm Calm - N/A Fog Fog
2:00 AM 46.9 °F - 44.1 °F 90% 29.97 in 2.0 mi Calm Calm - N/A   Clear
2:07 AM 46.9 °F - 44.1 °F 90% 29.97 in 5.0 mi Calm Calm - N/A   Clear
2:23 AM 48.0 °F - 45.0 °F 89% 29.97 in 1.5 mi Calm Calm - N/A   Clear
2:33 AM 46.9 °F - 44.1 °F 90% 29.97 in 0.8 mi Calm Calm - N/A   Mist
2:42 AM 46.9 °F - 44.1 °F 90% 29.97 in 1.0 mi Calm Calm - N/A   Mist
2:51 AM 46.4 °F - 44.6 °F 93% 29.97 in 3.0 mi Calm Calm - N/A   Mostly Cloudy
2:54 AM 45.0 °F - 43.0 °F 93% 29.96 in 2.5 mi Calm Calm - N/A   Mostly Cloudy
3:02 AM 46.9 °F - 44.1 °F 90% 29.97 in 2.5 mi Calm Calm - N/A   Scattered Clouds
3:23 AM 46.9 °F - 44.1 °F 90% 29.96 in 8.0 mi Calm Calm - N/A   Clear
3:43 AM 44.1 °F - 42.1 °F 93% 29.97 in 1.8 mi Calm Calm - N/A   Clear
3:54 AM 46.9 °F - 43.0 °F 86% 29.96 in 1.5 mi Calm Calm - N/A   Clear
3:57 AM 46.0 °F - 43.0 °F 89% 29.96 in 4.0 mi Calm Calm - N/A   Clear
4:18 AM 45.0 °F - 42.1 °F 90% 29.96 in 2.5 mi Calm Calm - N/A   Clear
4:23 AM 45.0 °F - 42.1 °F 90% 29.95 in 4.0 mi Calm Calm - N/A   Partly Cloudy
4:33 AM 45.0 °F - 41.0 °F 86% 29.96 in 2.5 mi Calm Calm - N/A   Scattered Clouds
4:37 AM 44.1 °F - 42.1 °F 93% 29.96 in 1.0 mi Calm Calm - N/A   Mist
4:45 AM 44.1 °F - 41.0 °F 89% 29.95 in 0.5 mi Calm Calm - N/A Fog Fog
4:54 AM 45.0 °F - 42.1 °F 90% 29.94 in 0.8 mi Calm Calm - N/A   Mist
5:23 AM 45.0 °F 43.5 °F 42.1 °F 90% 29.96 in 0.2 mi NW 3.5 mph - N/A Fog Fog
5:29 AM 45.0 °F 42.6 °F 42.1 °F 90% 29.96 in 0.5 mi NNW 4.6 mph - N/A Fog Fog
5:38 AM 46.0 °F - 42.1 °F 86% 29.96 in 2.5 mi Calm Calm - N/A   Mostly Cloudy
5:49 AM 44.6 °F - 42.8 °F 93% 29.96 in 1.0 mi Calm Calm - N/A   Mist
5:54 AM 45.0 °F - 42.1 °F 90% 29.96 in 0.8 mi Calm Calm - N/A   Mostly Cloudy
6:02 AM 45.0 °F - 42.1 °F 90% 29.95 in 2.0 mi Calm Calm - N/A   Mostly Cloudy
6:10 AM 45.0 °F - 42.1 °F 90% 29.96 in 3.0 mi Calm Calm - N/A   Overcast
6:26 AM 45.0 °F - 42.1 °F 90% 29.97 in 4.0 mi Calm Calm - N/A   Overcast
6:52 AM 48.2 °F - 44.6 °F 87% 29.97 in 1.5 mi Calm Calm - N/A   Overcast
6:54 AM 48.0 °F - 45.0 °F 89% 29.97 in 1.0 mi Calm Calm - N/A   Mist
6:59 AM 48.0 °F - 45.0 °F 89% 29.97 in 0.2 mi Calm Calm - N/A Fog Fog
7:54 AM 51.1 °F - 48.9 °F 92% 29.96 in 0.2 mi ENE 3.5 mph - N/A Fog Fog
8:54 AM 54.0 °F - 52.0 °F 93% 29.96 in 0.2 mi Calm Calm - N/A Fog Fog
9:16 AM 55.9 °F - 54.0 °F 93% 29.95 in 0.8 mi ESE 6.9 mph - N/A   Mist
9:24 AM 55.9 °F - 54.0 °F 93% 29.95 in 1.2 mi ESE 6.9 mph - N/A   Overcast
9:33 AM 55.9 °F - 55.0 °F 97% 29.94 in 3.0 mi ESE 5.8 mph - N/A   Overcast
9:52 AM 57.2 °F - 55.4 °F 94% 29.94 in 10.0 mi ESE 6.9 mph - N/A   Overcast
9:54 AM 57.0 °F - 55.9 °F 96% 29.94 in 10.0 mi ESE 6.9 mph - N/A   Overcast
10:06 AM 57.9 °F - 55.9 °F 93% 29.94 in 10.0 mi SE 5.8 mph - N/A   Overcast
10:54 AM 61.0 °F - 55.9 °F 83% 29.91 in 10.0 mi ESE 11.5 mph 18.4 mph N/A   Overcast
11:30 AM 62.1 °F - 55.9 °F 80% 29.91 in 10.0 mi ESE 11.5 mph 18.4 mph N/A   Mostly Cloudy
11:54 AM 64.0 °F - 55.9 °F 75% 29.89 in 10.0 mi ESE 13.8 mph 21.9 mph N/A   Mostly Cloudy
12:54 PM 71.1 °F - 54.0 °F 55% 29.84 in 10.0 mi SE 11.5 mph - N/A   Clear
1:54 PM 73.9 °F - 54.0 °F 50% 29.82 in 10.0 mi SSE 11.5 mph - N/A   Clear
2:54 PM 73.0 °F - 54.0 °F 51% 29.81 in 10.0 mi SSE 10.4 mph - N/A   Overcast
3:54 PM 73.0 °F - 55.0 °F 53% 29.79 in 10.0 mi SE 9.2 mph - N/A   Overcast
4:54 PM 73.9 °F - 55.9 °F 53% 29.78 in 10.0 mi SSE 10.4 mph - N/A   Scattered Clouds
5:54 PM 73.0 °F - 55.9 °F 55% 29.78 in 10.0 mi SSE 8.1 mph - N/A   Partly Cloudy
6:54 PM 71.1 °F - 55.9 °F 59% 29.75 in 10.0 mi SE 4.6 mph - N/A   Clear
7:54 PM 72.0 °F - 57.0 °F 59% 29.75 in 10.0 mi SSE 5.8 mph - N/A   Overcast
8:54 PM 68.0 °F - 60.1 °F 76% 29.78 in 10.0 mi WSW 9.2 mph - 0.00 in   Overcast
9:54 PM 64.9 °F - 61.0 °F 87% 29.79 in 4.0 mi SW 12.7 mph - 0.02 in Rain Rain
10:54 PM 64.0 °F - 60.1 °F 87% 29.81 in 10.0 mi SSW 11.5 mph - 0.03 in   Overcast
11:54 PM 63.0 °F - 59.0 °F 87% 29.78 in 10.0 mi South 9.2 mph - 0.02 in Rain Light Rain